Overview Statistics Trail Chart Weather Telemetry Raw packets
 

This is the latest recevied weather packets stored in our database for station/object KC9TVS-13. If no packets are shown the sender has not sent any weather packets the latest 10 day(s).

<< 13 14 15 16 17 18 19 >>
Time Temp. Humidity Pressure Rain* Wind** Luminosity Snow
1788473482 28.89° C 83% 1013 hPa 0 mm - 70 W/m² -
1788473182 28.89° C 83% 1013 hPa 0 mm - 79 W/m² -
1788472880 28.89° C 83% 1012.8 hPa 0 mm - 86 W/m² -
1788472582 28.89° C 83% 1012.9 hPa 0 mm - 84 W/m² -
1788472279 28.89° C 83% 1012.9 hPa 0 mm - 79 W/m² -
1788471979 28.89° C 83% 1013 hPa 0 mm - 81 W/m² -
1788471678 28.89° C 83% 1012.9 hPa 0 mm - 86 W/m² -
1788471379 28.89° C 82% 1013 hPa 0 mm - 93 W/m² -
1788471078 28.89° C 83% 1013 hPa 0 mm - 104 W/m² -
1788470779 29.44° C 83% 1013 hPa 0 mm - 125 W/m² -
1788470480 28.89° C 82% 1013.1 hPa 0 mm - 123 W/m² -
1788470179 28.89° C 83% 1013.1 hPa 0 mm - 125 W/m² -
1788469880 28.89° C 82% 1013.2 hPa 0 mm - 139 W/m² -
1788469577 28.89° C 83% 1013.2 hPa 0 mm - 146 W/m² -
1788469276 28.89° C 82% 1013.2 hPa 0 mm - 162 W/m² -
1788468976 28.89° C 83% 1013.2 hPa 0 mm - 179 W/m² -
1788468673 28.89° C 82% 1013.2 hPa 0 mm - 199 W/m² -
1788468373 28.89° C 81% 1013.2 hPa 0 mm - 209 W/m² -
1788468074 28.89° C 83% 1013.3 hPa 0 mm - 218 W/m² -
1788467774 28.89° C 84% 1013.3 hPa 0 mm - 234 W/m² -
1788467475 28.89° C 83% 1013.3 hPa 0 mm - 250 W/m² -
1788467175 28.89° C 84% 1013.5 hPa 0 mm - 269 W/m² -
1788466875 28.89° C 84% 1013.7 hPa 0 mm - 290 W/m² -
1788466574 28.33° C 85% 1013.7 hPa 0 mm - 320 W/m² -
1788466272 28.33° C 86% 1013.7 hPa 0 mm - 315 W/m² -

* Rain latest hour (hover to see other rain measurements)
** Current wind speed in m/s (hover to see current wind gust speed)